Weather History for North Bend, OR

Change the Weather History Date:

Thursday, March 22, 2012

  Actual Average Record
Temperature  
Mean Temperature 43 °F 48 °F  
Max Temperature 48 °F 54 °F 73 °F (1915)
Min Temperature 37 °F 42 °F 29 °F (1903)
Degree Days  
Heating Degree Days 22 17  
Month to date heating degree days 460 383  
Since 1 July heating degree days 3610 3557  
Cooling Degree Days 0 0  
Month to date cooling degree days 0 0  
Year to date cooling degree days 0 0  
Moisture  
Dew Point 32 °F    
Average Humidity 69    
Maximum Humidity 76    
Minimum Humidity 60    
Precipitation  
Precipitation 0.07 in 0.24 in 2.64 in (1993)
Month to date precipitation 8.20 5.74  
Year to date precipitation 16.09 23.52  
Sea Level Pressure  
Sea Level Pressure 30.05 in    
Wind  
Wind Speed 8 mph (SSE)    
Max Wind Speed 12 mph    
Max Gust Speed 16 mph    
Visibility 10 miles    
Events      
T = Trace of Precipitation, MM = Missing Value Source: NWS Daily Summary

Daily Weather History Graph

Daily Weather History Graph

Search for Another Location

Airport:

Trip Planner

Search our weather history database for the weather conditions in past years. The results will help you decide how hot, cold, wet, or windy it might be!

Date:

Astronomy

Mar. 22, 2012 Rise Set
Actual Time 7:15 AM PDT 7:32 PM PDT
Civil Twilight 6:47 AM PDT 8:01 PM PDT
Nautical Twilight 6:13 AM PDT 8:34 PM PDT
Astronomical Twilight 5:39 AM PDT 9:09 PM PDT
Moon 6:56 AM PDT (3/22) 8:05 PM PDT (3/22)
Length of Visible Light 13h 14m
Length of Day
12h 16m
New Moon, 0% of the Moon is Illuminated
Mar 22
New Moon
Mar 30
First Quarter
Apr 6
Full
Apr 13
Last Quarter
Apr 21
New

Hourly Weather History & Observations

Time (PDT) Temp. Windchill Dew Point Humidity Pressure Visibility Wind Dir Wind Speed Gust Speed Precip Events Conditions
12:15 AM 37.4 °F 29.8 °F 28.4 °F 70% 29.98 in 10.0 mi SSE 11.5 mph - 0.02 in   Overcast
12:35 AM 37.4 °F 32.1 °F 28.4 °F 70% 29.99 in 9.0 mi SE 6.9 mph - 0.04 in   Overcast
12:55 AM 37.4 °F 32.8 °F 28.4 °F 70% 30.00 in 8.0 mi East 5.8 mph - 0.06 in   Overcast
1:15 AM 37.4 °F 31.4 °F 28.4 °F 70% 30.01 in 10.0 mi ESE 8.1 mph - N/A   Overcast
1:35 AM 37.4 °F 31.4 °F 30.2 °F 75% 30.01 in 10.0 mi SE 8.1 mph - N/A   Overcast
1:55 AM 37.4 °F 32.1 °F 30.2 °F 75% 30.02 in 10.0 mi ESE 6.9 mph - N/A   Overcast
2:15 AM 37.4 °F 31.4 °F 30.2 °F 75% 30.03 in 10.0 mi SE 8.1 mph - N/A   Overcast
2:35 AM 37.4 °F 30.8 °F 30.2 °F 75% 30.04 in 10.0 mi SE 9.2 mph - N/A   Overcast
2:55 AM 37.4 °F 30.8 °F 30.2 °F 75% 30.04 in 10.0 mi SE 9.2 mph - N/A   Overcast
3:15 AM 37.4 °F 30.8 °F 30.2 °F 75% 30.05 in 10.0 mi SE 9.2 mph - N/A   Overcast
3:35 AM 37.4 °F 30.8 °F 30.2 °F 75% 30.05 in 10.0 mi SE 9.2 mph - N/A   Overcast
3:55 AM 37.4 °F 30.8 °F 30.2 °F 75% 30.06 in 9.0 mi SSE 9.2 mph - 0.01 in   Overcast
4:15 AM 37.4 °F 32.8 °F 30.2 °F 75% 30.06 in 8.0 mi SE 5.8 mph - 0.06 in   Overcast
4:35 AM 37.4 °F 30.3 °F 30.2 °F 75% 30.06 in 10.0 mi ESE 10.4 mph - 0.06 in   Overcast
4:55 AM 37.4 °F 31.4 °F 28.4 °F 70% 30.06 in 10.0 mi SSE 8.1 mph - 0.06 in   Overcast
5:15 AM 37.4 °F 31.4 °F 30.2 °F 75% 30.06 in 10.0 mi SSE 8.1 mph - N/A   Overcast
5:35 AM 37.4 °F 32.1 °F 28.4 °F 70% 30.06 in 10.0 mi SSE 6.9 mph - N/A   Overcast
5:55 AM 37.4 °F 32.1 °F 28.4 °F 70% 30.06 in 10.0 mi SSE 6.9 mph - N/A   Overcast
6:15 AM 37.4 °F 32.1 °F 28.4 °F 70% 30.07 in 10.0 mi SSE 6.9 mph - N/A   Overcast
6:35 AM 37.4 °F 32.1 °F 28.4 °F 70% 30.06 in 10.0 mi SE 6.9 mph - N/A   Overcast
6:55 AM 37.4 °F 31.4 °F 28.4 °F 70% 30.07 in 10.0 mi SE 8.1 mph - N/A   Overcast
7:15 AM 37.4 °F 31.4 °F 28.4 °F 70% 30.07 in 10.0 mi SSE 8.1 mph - N/A   Overcast
7:35 AM 37.4 °F 30.8 °F 28.4 °F 70% 30.07 in 10.0 mi SSE 9.2 mph - N/A   Overcast
7:55 AM 37.4 °F 30.3 °F 28.4 °F 70% 30.08 in 10.0 mi SSE 10.4 mph - N/A   Overcast
8:15 AM 37.4 °F 31.4 °F 28.4 °F 70% 30.08 in 10.0 mi SSE 8.1 mph - N/A   Mostly Cloudy
8:35 AM 37.4 °F 31.4 °F 30.2 °F 75% 30.08 in 10.0 mi SSE 8.1 mph - N/A   Partly Cloudy
8:55 AM 39.2 °F 32.5 °F 30.2 °F 70% 30.08 in 10.0 mi SSE 10.4 mph - N/A   Partly Cloudy
9:15 AM 39.2 °F 33.6 °F 30.2 °F 70% 30.08 in 10.0 mi SSE 8.1 mph - N/A   Clear
9:35 AM 41.0 °F 36.4 °F 30.2 °F 65% 30.08 in 10.0 mi SSE 6.9 mph - N/A   Clear
9:55 AM 42.8 °F 37.5 °F 32.0 °F 66% 30.08 in 10.0 mi SSE 9.2 mph - N/A   Clear
10:15 AM 42.8 °F 37.5 °F 32.0 °F 66% 30.08 in 10.0 mi SSE 9.2 mph - N/A   Scattered Clouds
10:35 AM 42.8 °F 37.5 °F 32.0 °F 66% 30.08 in 10.0 mi SSE 9.2 mph - N/A   Overcast
10:55 AM 42.8 °F 38.0 °F 33.8 °F 70% 30.08 in 10.0 mi SE 8.1 mph - N/A   Overcast
11:15 AM 44.6 °F 41.4 °F 33.8 °F 66% 30.08 in 10.0 mi SE 5.8 mph - N/A   Overcast
11:35 AM 46.4 °F 42.4 °F 33.8 °F 62% 30.08 in 10.0 mi ESE 8.1 mph - N/A   Mostly Cloudy
11:55 AM 46.4 °F 42.9 °F 35.6 °F 66% 30.07 in 10.0 mi SE 6.9 mph - N/A   Partly Cloudy
12:15 PM 46.4 °F 41.9 °F 33.8 °F 62% 30.07 in 10.0 mi South 9.2 mph - N/A   Mostly Cloudy
12:35 PM 42.8 °F 36.6 °F 33.8 °F 70% 30.07 in 9.0 mi WSW 11.5 mph - N/A   Overcast
12:55 PM 44.6 °F 39.7 °F 35.6 °F 71% 30.07 in 10.0 mi WSW 9.2 mph - N/A   Overcast
1:15 PM 44.6 °F 41.4 °F 33.8 °F 66% 30.06 in 10.0 mi WSW 5.8 mph - N/A   Overcast
1:35 PM 44.6 °F 40.2 °F 35.6 °F 71% 30.06 in 10.0 mi West 8.1 mph - N/A   Mostly Cloudy
1:55 PM 44.6 °F 40.7 °F 35.6 °F 71% 30.05 in 10.0 mi WSW 6.9 mph - N/A   Mostly Cloudy
2:15 PM 46.4 °F 42.4 °F 35.6 °F 66% 30.05 in 10.0 mi West 8.1 mph - N/A   Overcast
2:35 PM 46.4 °F 41.5 °F 35.6 °F 66% 30.04 in 10.0 mi WSW 10.4 mph - N/A   Overcast
2:55 PM 46.4 °F 41.5 °F 33.8 °F 62% 30.04 in 10.0 mi SW 10.4 mph 16.1 mph N/A   Overcast
3:15 PM 46.4 °F 41.5 °F 33.8 °F 62% 30.03 in 10.0 mi WSW 10.4 mph - N/A   Mostly Cloudy
3:35 PM 46.4 °F 41.9 °F 33.8 °F 62% 30.03 in 10.0 mi WSW 9.2 mph - N/A   Mostly Cloudy
3:55 PM 48.2 °F - 35.6 °F 62% 30.03 in 10.0 mi West 10.4 mph - N/A   Mostly Cloudy
4:15 PM 48.2 °F - 35.6 °F 62% 30.02 in 10.0 mi West 12.7 mph - N/A   Mostly Cloudy
4:35 PM 48.2 °F - 33.8 °F 58% 30.02 in 10.0 mi West 12.7 mph - N/A   Mostly Cloudy
4:55 PM 48.2 °F - 35.6 °F 62% 30.02 in 10.0 mi West 11.5 mph - N/A   Mostly Cloudy
5:15 PM 48.2 °F - 33.8 °F 58% 30.02 in 10.0 mi WSW 12.7 mph - N/A   Partly Cloudy
5:35 PM 48.2 °F - 33.8 °F 58% 30.02 in 10.0 mi WSW 13.8 mph - N/A   Clear
5:55 PM 46.4 °F 41.1 °F 33.8 °F 62% 30.01 in 10.0 mi WSW 11.5 mph - N/A   Partly Cloudy
6:15 PM 46.4 °F 40.4 °F 33.8 °F 62% 30.02 in 10.0 mi WSW 13.8 mph - N/A   Scattered Clouds
6:35 PM 44.6 °F 39.7 °F 33.8 °F 66% 30.02 in 10.0 mi WSW 9.2 mph - N/A   Overcast
6:55 PM 44.6 °F 40.2 °F 32.0 °F 61% 30.02 in 10.0 mi SW 8.1 mph - N/A   Mostly Cloudy
7:15 PM 44.6 °F 41.4 °F 32.0 °F 61% 30.02 in 10.0 mi SW 5.8 mph - N/A   Partly Cloudy
7:35 PM 44.6 °F 41.4 °F 30.2 °F 57% 30.02 in 10.0 mi SSW 5.8 mph - N/A   Clear
7:55 PM 42.8 °F 38.6 °F 30.2 °F 61% 30.02 in 10.0 mi SSW 6.9 mph - N/A   Clear
8:15 PM 42.8 °F 37.0 °F 32.0 °F 66% 30.02 in 9.0 mi SW 10.4 mph - N/A   Mostly Cloudy
8:35 PM 42.8 °F 38.0 °F 32.0 °F 66% 30.02 in 10.0 mi SSW 8.1 mph - N/A   Mostly Cloudy
8:55 PM 39.2 °F 35.9 °F 30.2 °F 70% 30.02 in 10.0 mi SSE 4.6 mph - N/A   Scattered Clouds
9:15 PM 37.4 °F 33.8 °F 30.2 °F 75% 30.02 in 10.0 mi SE 4.6 mph - N/A   Clear
9:35 PM 37.4 °F 32.8 °F 30.2 °F 75% 30.02 in 10.0 mi SSE 5.8 mph - N/A   Partly Cloudy
9:55 PM 37.4 °F 32.8 °F 30.2 °F 75% 30.02 in 10.0 mi SE 5.8 mph - N/A   Scattered Clouds
10:15 PM 39.2 °F 35.9 °F 30.2 °F 70% 30.02 in 10.0 mi SE 4.6 mph - N/A   Mostly Cloudy
10:35 PM 39.2 °F 37.0 °F 30.2 °F 70% 30.02 in 10.0 mi SE 3.5 mph - N/A   Overcast
10:55 PM 37.4 °F 32.8 °F 30.2 °F 75% 30.01 in 10.0 mi SE 5.8 mph - N/A   Partly Cloudy
11:15 PM 37.4 °F 32.1 °F 30.2 °F 75% 30.01 in 10.0 mi SE 6.9 mph - N/A   Mostly Cloudy
11:35 PM 37.4 °F 32.1 °F 30.2 °F 75% 30.00 in 10.0 mi SE 6.9 mph - N/A   Scattered Clouds
11:55 PM 37.4 °F 32.1 °F 30.2 °F 75% 30.00 in 10.0 mi SE 6.9 mph - N/A   Clear